Regional Weather Roundup
Issued by NWS

Home | Current Version | Previous Version | Graphics & Text | Print | Product List | Glossary On
Versions: 1 2 3 4 5 6 7 8 9 10 11 12 13 14 15 16 17 18 19 20 21 22 23 24 25 26 27 28 29 30 31 32 33 34 35 36 37 38 39 40 41 42 43 44 45 46 47 48 49 50
272
ASUS45 KTFX 241310
RWRMT
MONTANA REGIONAL WEATHER ROUNDUP
NATIONAL WEATHER SERVICE GREAT FALLS MT
700 AM MDT WED MAY 24 2017

NOTE: "FAIR" INDICATES FEW OR NO CLOUDS BELOW 12000 FEET WITH NO
SIGNIFICANT WEATHER AND/OR OBSTRUCTIONS TO VISIBILITY.

MTZ001>007-043-241400-
WEST OF THE DIVIDE

CITY           SKY/WX    TMP DP  RH WIND       PRES   REMARKS
KALISPELL      MOSUNNY   58  34  40 SW17G24   29.50R
MISSOULA       CLOUDY    59  36  42 SW15      29.64S
BUTTE          MOSUNNY   61  37  41 W9        29.63F
MULLAN PASS    CLEAR     36  22  56 W13G28    29.70S WCI  27
ANACONDA         N/A     61  36  39 W10G21    29.59F
DEER LODGE       N/A     61  37  41 S9G17     29.60S
EUREKA           N/A     57   9  14 W17G29    29.48R
HAMILTON         N/A     63  27  25 SW13G21   29.66R
PLAINS           N/A     59  32  36 SW8       29.67R
RONAN            N/A     58  30  34 SW16      29.69R
$$

MTZ008-052>055-241400-
SOUTHWEST MONTANA

CITY           SKY/WX    TMP DP  RH WIND       PRES   REMARKS
BOZEMAN        CLOUDY    58  42  55 S12       29.56F
DILLON         SUNNY     57  38  48 S10       29.64F
W YELLOWSTONE  CLOUDY    48  34  57 W6        29.83F
ENNIS          SUNNY     55  36  47 S23G33    29.70F
$$

MTZ009-010-012-014-046-048-049-054-241400-
EAST SLOPES AND CENTRAL MONTANA

CITY           SKY/WX    TMP DP  RH WIND       PRES   REMARKS
CUT BANK       SUNNY     58  30  34 SW35G44   29.37R
GREAT FALLS    SUNNY     64  39  39 SW20      29.41F
HELENA         PTSUNNY   62  46  55 W7        29.49F
CHOTEAU          N/A     63  23  22 W25G39    29.43R
CONRAD           N/A     63  42  46 SW22      29.46R
$$

MTZ011-013-016-021-045-047-050-051-241400-
NORTH CENTRAL MONTANA

CITY           SKY/WX    TMP DP  RH WIND       PRES   REMARKS
HAVRE          SUNNY     66  44  45 SW18G24   29.28F
LEWISTOWN      SUNNY     65  40  39 SW18      29.47F
N BAR RANCH      N/A     55  43  62 CALM      29.52F
CHINOOK          N/A     55  43  62 E7        29.29F
$$

MTZ017>020-022>027-061-062-241400-
NORTHEAST MONTANA

CITY           SKY/WX    TMP DP  RH WIND       PRES   REMARKS
GLASGOW        SUNNY     57  37  47 SE18      29.42F
JORDAN           N/A     58  37  45 S8        29.45F
SIDNEY         SUNNY     54  36  50 S22G29    29.58F
WOLF POINT     PTSUNNY   56  35  45 S7        29.49F
MALTA          SUNNY     59  41  51 NW5       29.34F
PLENTYWOOD       N/A     54  34  47 SE21G26   29.54F
SCOBEY           N/A     55  31  40 SE14      29.48
$$

MTZ028>42-056>058-241400-
SOUTHCENTRAL AND SOUTHEAST MONTANA

CITY           SKY/WX    TMP DP  RH WIND       PRES   REMARKS
BAKER          MOSUNNY   48  36  63 SE21      29.64F
BILLINGS       MOSUNNY   61  32  33 SW17      29.53F
LIVINGSTON     SUNNY     63  38  39 SW29G41   29.54F
MILES CITY     CLOUDY    53  36  52 SE17      29.53F
BIG TIMBER     SUNNY     63  41  45 W7        29.57F
EKALAKA          N/A     49  33  54 SE15      29.64F
FORSYTH          N/A     52  39  62 CALM      29.51F
LAUREL           N/A     58  32  37 SW8       29.58R
ROUNDUP          N/A     58  35  42 S6        29.47F
$$

REGIONAL REPORTS...DAKOTAS

CITY           SKY/WX    TMP DP  RH WIND       PRES   REMARKS
WILLISTON      MOSUNNY   54  37  52 SE18G30   29.60F
MINOT          SUNNY     55  38  52 S15       29.71F
DICKINSON      CLOUDY    49  35  58 S22G28    29.67F
BEACH            N/A     48  37  66 S22G29    29.66F
TIOGA            N/A     54  37  54 S28G35    29.66F
WATFORD CITY     N/A     52  36  54 S17G29    29.64F
BISMARCK       SUNNY     43  38  82 NE3       29.79F
GRAND FORKS    MOSUNNY   50  46  86 SE5       29.83F
FARGO          SUNNY     49  45  86 CALM      29.84S
BUFFALO SD       N/A     49  38  65 SE15      29.62F
RAPID CITY     SUNNY     45  38  76 S12       29.75F
$$

REGIONAL REPORTS...WYOMING/IDAHO/WASHINGTON

CITY           SKY/WX    TMP DP  RH WIND       PRES   REMARKS
GILLETTE       SUNNY     47  38  71 S18G25    29.66F
SHERIDAN       SUNNY     49  42  77 CALM      29.60F
BUFFALO WY     SUNNY     60  40  47 SW5       29.66F
CODY           SUNNY     64  36  35 SW18      29.69F
YELLOWSTONE LA   N/A     34  33  96 CALM      29.92F
IDAHO FALLS    CLEAR     53  43  68 SW9       29.79F
SALMON         CLEAR     48  43  81 N8        29.63F
BOISE          CLEAR     60  45  57 W5        29.79R
SPOKANE        PTCLDY    46  24  42 W18       29.75R
$$

REGIONAL REPORTS...ALBERTA

CITY           SKY/WX    TMP DP  RH WIND       PRES   REMARKS
EDMONTON       LGT RAIN  54  46  76 W14       29.09S
CALGARY        LGT RAIN  52  39  62 N21G30    29.25R
LETHBRIDGE     MOSUNNY   61  28  29 SW20G28   29.26R
MEDICINE HAT   MOSUNNY   66  39  37 SW21G31   29.17R
WATERTON GATE    N/A     55  25  30 W16G30      N/A
CARDSTON         N/A     57  27  30 SW8         N/A
MILK RIVER       N/A     63  27  25 W29G38      N/A
ONEFOUR          N/A     61  39  44 S8          N/A
$$

REGIONAL REPORTS...SASKATCHEWAN

CITY           SKY/WX    TMP DP  RH WIND       PRES   REMARKS
SWIFT CURRENT  SUNNY     57  36  44 S22G32    29.24F
REGINA         PTSUNNY   55  34  44 SE28G39   29.43F
SASKATOON      PTSUNNY   59  41  51 SE23G31   29.20F
CYPRESS HILLS    N/A     55  37  50 S9          N/A
VAL MARIE        N/A     55  36  47 S16         N/A
ROCKGLEN         N/A     52  36  54 S25G33      N/A
ASSINIBOIA       N/A     57  48  72 NW8         N/A
$$




USA.gov is the U.S. government's official web portal to all federal, state and local government web resources and services.